Change the Weather History Date:

Monday, November 18, 2013

  Actual Average Record
Temperature  
Mean Temperature 35 °F 37 °F  
Max Temperature 44 °F 46 °F 71 °F (1999)
Min Temperature 26 °F 27 °F 9 °F (2014)
Degree Days  
Heating Degree Days 30 28  
Month to date heating degree days 434 429  
Since 1 July heating degree days 1007 1036  
Cooling Degree Days 0 0  
Month to date cooling degree days 0 0  
Year to date cooling degree days 745 655  
Moisture  
Dew Point 29 °F    
Average Humidity 69    
Maximum Humidity 85    
Minimum Humidity 53    
Precipitation  
Precipitation 0.00 in 0.11 in 1.28 in (2003)
Month to date precipitation 2.05 2.03  
Year to date precipitation 32.58 33.79  
Sea Level Pressure  
Sea Level Pressure 30.04 in    
Wind  
Wind Speed 16 mph (WNW)    
Max Wind Speed 30 mph    
Max Gust Speed 37 mph    
Visibility 10 miles    
Events      
T = Trace of Precipitation, MM = Missing Value Source: NWS Daily Summary

Daily Weather History Graph

Daily Weather History Graph

Search for Another Location

Airport or City:

Trip Planner

Search our weather history database for the weather conditions in past years. The results will help you decide how hot, cold, wet, or windy it might be!

Date:

Astronomy

Nov. 18, 2013 Rise Set
Actual Time 6:47 AM CST 4:30 PM CST
Civil Twilight 6:17 AM CST 5:00 PM CST
Nautical Twilight 5:43 AM CST 5:34 PM CST
Astronomical Twilight 5:10 AM CST 6:07 PM CST
Moon 5:32 PM CST (11/18) 7:35 AM CST (11/18)
Length of Visible Light 10h 43m
Length of Day
9h 43m
Full, 99% of the Moon is Illuminated
Nov 18
Full
Nov 25
Last Quarter
Dec 2
New
Dec 9
First Quarter
Dec 17
Full

Hourly Weather History & Observations

Time (CST) Temp. Windchill Dew Point Humidity Pressure Visibility Wind Dir Wind Speed Gust Speed Precip Events Conditions
12:52 AM 41.0 °F 31.4 °F 35.1 °F 79% 29.78 in 10.0 mi West 21.9 mph 26.5 mph N/A   Clear
1:52 AM 39.9 °F 30.5 °F 35.1 °F 83% 29.80 in 10.0 mi West 19.6 mph 25.3 mph N/A   Clear
2:52 AM 39.0 °F 29.6 °F 34.0 °F 82% 29.83 in 10.0 mi West 18.4 mph - N/A   Clear
3:52 AM 37.9 °F 28.2 °F 32.0 °F 79% 29.85 in 10.0 mi West 18.4 mph 26.5 mph N/A   Clear
4:52 AM 37.0 °F 27.4 °F 32.0 °F 82% 29.87 in 10.0 mi West 17.3 mph 26.5 mph N/A   Clear
5:52 AM 36.0 °F 24.4 °F 30.9 °F 82% 29.88 in 10.0 mi West 23.0 mph - N/A   Clear
6:52 AM 35.1 °F 24.8 °F 30.0 °F 82% 29.91 in 10.0 mi West 17.3 mph - N/A   Clear
7:28 AM 35.6 °F 25.2 °F 30.2 °F 81% 29.92 in 10.0 mi West 18.4 mph 26.5 mph N/A   Mostly Cloudy
7:52 AM 36.0 °F 25.0 °F 30.0 °F 79% 29.95 in 10.0 mi West 20.7 mph 28.8 mph N/A   Overcast
8:52 AM 37.0 °F 26.2 °F 28.9 °F 73% 29.99 in 10.0 mi WNW 21.9 mph 32.2 mph N/A   Mostly Cloudy
9:33 AM 37.4 °F 25.9 °F 28.4 °F 70% 29.99 in 10.0 mi WNW 25.3 mph 33.4 mph N/A   Scattered Clouds
9:52 AM 39.0 °F 28.8 °F 30.9 °F 73% 30.01 in 10.0 mi WNW 21.9 mph 32.2 mph N/A   Scattered Clouds
10:52 AM 39.9 °F 29.7 °F 30.9 °F 70% 30.03 in 10.0 mi West 23.0 mph 28.8 mph N/A   Scattered Clouds
11:52 AM 42.1 °F 32.1 °F 30.9 °F 65% 30.04 in 10.0 mi WNW 25.3 mph 32.2 mph N/A   Scattered Clouds
12:52 PM 44.1 °F 34.8 °F 30.9 °F 60% 30.06 in 10.0 mi West 25.3 mph 33.4 mph N/A   Scattered Clouds
1:52 PM 44.1 °F 35.9 °F 28.9 °F 55% 30.08 in 10.0 mi WNW 19.6 mph 29.9 mph N/A   Scattered Clouds
2:52 PM 42.1 °F 32.3 °F 26.1 °F 53% 30.11 in 10.0 mi WNW 24.2 mph 33.4 mph N/A   Clear
3:52 PM 39.9 °F 32.1 °F 28.0 °F 63% 30.14 in 10.0 mi WNW 13.8 mph - N/A   Clear
4:52 PM 36.0 °F 29.0 °F 27.0 °F 70% 30.16 in 10.0 mi WNW 9.2 mph - N/A   Clear
5:52 PM 33.1 °F 26.9 °F 27.0 °F 78% 30.19 in 10.0 mi West 6.9 mph - N/A   Clear
6:52 PM 32.0 °F 25.6 °F 26.1 °F 79% 30.20 in 10.0 mi WNW 6.9 mph - N/A   Clear
7:52 PM 32.0 °F 23.6 °F 26.1 °F 79% 30.23 in 10.0 mi WNW 10.4 mph - N/A   Clear
8:52 PM 32.0 °F 23.6 °F 26.1 °F 79% 30.23 in 10.0 mi WNW 10.4 mph - N/A   Clear
9:52 PM 30.9 °F 23.5 °F 26.1 °F 82% 30.25 in 10.0 mi WNW 8.1 mph - N/A   Clear
10:52 PM 30.0 °F 24.1 °F 25.0 °F 82% 30.27 in 10.0 mi NW 5.8 mph - N/A   Clear
11:52 PM 27.0 °F 20.5 °F 23.0 °F 85% 30.28 in 10.0 mi NW 5.8 mph - N/A   Clear